Regional Weather Roundup
Issued by NWS Sioux Falls, SD

Home | Current Version | Previous Version | Graphics & Text | Print | Product List | Glossary On
Versions: 1 2 3 4 5 6 7 8 9 10 11 12 13 14 15 16 17 18 19 20 21 22 23 24 25 26 27 28 29 30 31 32 33 34 35 36 37 38 39 40 41 42 43 44 45 46 47 48 49 50
000
ASUS43 KFSD 250902
RWRFSD

WEATHER ROUNDUP FOR SE SOUTH DAKOTA/SW MINNESOTA/NW IOWA
NATIONAL WEATHER SERVICE SIOUX FALLS SD
400 AM CDT FRI JUL 25 2014

NOTE: "FAIR" INDICATES FEW OR NO CLOUDS BELOW 12,000 FEET WITH NO
SIGNIFICANT WEATHER AND OR OBSTRUCTIONS TO VISIBILITY.


SDZ038>040-050-052>070-251000-
SOUTHEAST SOUTH DAKOTA

CITY           SKY/WX    TMP DP  RH WIND       PRES   REMARKS
CHAMBERLAIN    CLEAR     69  62  78 CALM      29.69S
HURON          MOCLDY    68  63  84 E5        29.67F
MADISON        FAIR      64  64 100 SE10      29.78S
MITCHELL       PTCLDY    67  64  90 NE7       29.72R
SIOUX FALLS    PTCLDY    66  62  87 E12       29.79R
WINNER         FAIR      72  63  73 W6        29.71S
YANKTON        CLEAR     79  66  65 S20G26    29.67R
$$

MNZ071-072-080-081-089-090-097-098-251000-
SOUTHWEST MINNESOTA

CITY           SKY/WX    TMP DP  RH WIND       PRES   REMARKS
FAIRMONT       CLOUDY    64  61  88 E9        29.82R
JACKSON        CLOUDY    68  63  83 SE5       29.90R
LUVERNE        MOCLDY    64  61  88 NE12      29.85R
MARSHALL       CLOUDY    64  63  94 SE9       29.79F
MONTEVIDEO     CLOUDY    64  64 100 S16       29.78F
PIPESTONE      LGT RAIN  64  61  88 SE13      29.81F
REDWOOD FALLS  TSTM      65  63  93 SE7       29.85R
TRACY          TSTM      66  63  88 SE6       29.86S
WINDOM         TSTM      68  63  83 S10       29.87R
WORTHINGTON    CLOUDY    64  63  94 S10       29.89R
$$

IAZ001>003-012>014-020>022-031-032-NEZ013-014-SDZ071-251000-
NORTHWEST IOWA

CITY           SKY/WX    TMP DP  RH WIND       PRES   REMARKS
CHEROKEE       MOCLDY    65  62  90 E12G17    29.81S
DENISON        CLOUDY    70  63  78 E12       29.77R
ESTHERVILLE    TSTM      66  63  90 S24G38    29.80F FOG
LE MARS        PTCLDY    68  63  83 E10       29.76R
ORANGE CITY    PTCLDY    66  61  82 E13G20    29.78R
SHELDON        MOCLDY    64  63  94 SE10G21   29.79R
SIOUX CITY     PTCLDY    77  64  64 S3        29.71R
SPENCER        CLOUDY    65  62  90 SE20G26   29.83S
STORM LAKE     CLOUDY    64  64 100 E13       29.85R
$$

ABBREVIATIONS USED IN REMARKS
   TC - TEMPERATURE IN CELSIUS
  WCI - WIND CHILL INDEX
   HX - HEAT INDEX
  VSB - VISIBILITY




USA.gov is the U.S. government's official web portal to all federal, state and local government web resources and services.